Weather Roundup
Issued by NWS

Home | Current Version | Previous Version | Graphics & Text | Print | Product List | Glossary Off
Versions: 1 2 3 4 5 6 7 8 9 10 11 12 13 14 15 16 17 18 19 20 21 22 23 24 25 26 27 28 29 30 31 32 33 34 35 36 37 38 39 40 41 42 43 44 45 46 47 48 49 50

034
NZUS93 KARX 301459
HRRWXR

CURRENT HOURLY OBSERVATIONS ACROSS
MUCH OF THE UPPER MISSISSIPPI VALLEY
NATIONAL WEATHER SERVICE LA CROSSE WI
1000 AM CDT SUN APR 30 2017


...SOUTHEAST MINNESOTA...


CITY           SKY/WX    TMP DP  RH WIND       PRES   REMARKS
ROCHESTER      CLOUDY    41  32  70 NE17      29.93S
ROCHESTER/MAYO CLOUDY    42  31  66 E10       29.95S
WINONA         LGT RAIN  43  32  65 E12       29.97S
AUSTIN         CLOUDY    43  32  65 E14G20    29.93R
ALBERT LEA     MIX PCPN  39  30  70 NE15G23   29.94R WCI  31
DODGE CENTER   CLOUDY    41  30  65 NE20G25     N/A
PRESTON        CLOUDY    39  31  72 NE10G18   29.94R WCI  33
OWATONNA       CLOUDY    41  30  65 NE13      29.95S
FARIBAULT      CLOUDY    39  34  81 N10G21    29.96F WCI  32
$$

...ELSEWHERE IN MINNESOTA...


CITY           SKY/WX    TMP DP  RH WIND       PRES   REMARKS
MINNEAPOLIS    LGT RAIN  43  29  57 NE14      30.01F
INTNL FALLS    MOSUNNY   46  20  35 SE8       30.18S
DULUTH         PTSUNNY   43  21  41 E15       30.12R
RED WING       CLOUDY    45  27  49 E8G16     29.98S
REDWOOD FALLS  LGT RAIN  40  29  64 NE9       30.01R WCI  34
MANKATO        LGT RAIN  40  34  79 NE15      29.97S WCI  32
WORTHINGTON    LGT RAIN  36  34  92 NE20      29.94S WCI  25
FAIRMONT       LGT RAIN  39  36  89 NE18      29.93F WCI  30
$$

...SOUTHWEST WISCONSIN...


CITY           SKY/WX    TMP DP  RH WIND       PRES   REMARKS
LA CROSSE      CLOUDY    45  34  65 E12       29.96S
PRAIRIE DU CHI CLOUDY    42  36  81 NE7G17    29.92R
BOSCOBEL       CLOUDY    43  39  86 NE7       29.93R
LONE ROCK      NOT AVBL
PLATTEVILLE    CLOUDY    41  41  99 NE20      29.87R
FORT MC COY    CLOUDY    42  36  78 E15G24    29.97R
MAUSTON-NEW LI CLOUDY    41  37  84 E9G18     29.95S
VIROQUA        CLOUDY    40  36  87 E22       29.92R WCI  30
WIS DELLS      CLOUDY    39  38  95 NE16G23   29.93S FOG     WCI  31
$$

...ELSEWHERE IN WISCONSIN...


CITY           SKY/WX    TMP DP  RH WIND       PRES   REMARKS
MILWAUKEE      LGT RAIN  42  42 100 NE18      29.87F VSB 1
MADISON        DRIZZLE   41  39  93 NE14      29.91R FOG
GREEN BAY      CLOUDY    41  39  93 NE21G32   30.02F FOG
EAU CLAIRE     NOT AVBL
BLACK RVR FLS  CLOUDY    44  32  63 E10G20    29.98R
MEDFORD        CLOUDY    41  32  69 E20G25    30.00S
WAUSAU         CLOUDY    43  33  68 E18       30.00F
WIS RAPIDS     CLOUDY    42  36  79 E20G26    29.97F
MARSHFIELD     CLOUDY    42  34  73 E12G25    29.98F
RICE LAKE      CLOUDY    44  25  47 NE12      30.06R
$$

...NORTHEAST IOWA...


CITY           SKY/WX    TMP DP  RH WIND       PRES   REMARKS
WATERLOO       CLOUDY    41  37  86 E20G28    29.87F
DUBUQUE        CLOUDY    41  39  93 NE13G24   29.88R
DECORAH        CLOUDY    41  36  81 E14G21    29.91R
MASON CITY     CLOUDY    39  35  86 NE20G26   29.91R FOG     WCI  29
CHARLES CITY   CLOUDY    41  36  81 NE17      29.91S
OELWEIN        CLOUDY    41  39  93 E18G25    29.88F
$$

...ELSEWHERE IN IOWA...


CITY           SKY/WX    TMP DP  RH WIND       PRES   REMARKS
DES MOINES     LGT RAIN  42  41  96 NE15      29.83R FOG
IOWA CITY      CLOUDY    44  41  89 NE12      29.85R
FORT DODGE     CLOUDY    39  34  81 NE12G18   29.89S WCI  32
MARSHALLTOWN   CLOUDY    41  40  96 E21       29.85R
CEDAR RAPIDS   CLOUDY    42  42 100 NE16      29.84R
$$

...NORTHERN ILLINOIS...


CITY           SKY/WX    TMP DP  RH WIND       PRES   REMARKS
CHICAGO-OHARE  LGT RAIN  45  43  93 NE9       29.79S FOG
CHICAGO-MIDWAY CLOUDY    46  46 100 NE13G23   29.78R FOG
MOLINE         CLOUDY    44  41  89 E14       29.83R FOG
ROCKFORD       CLOUDY    44  40  85 NE14G22   29.87R
PEORIA         LGT RAIN  48  48 100 N5        29.78R VSB 3/4
$$

NOTE: "FAIR" INDICATES FEW OR NO CLOUDS BELOW 12,000 FEET WITH NO
SIGNIFICANT WEATHER AND/OR OBSTRUCTIONS TO VISIBILITY. WIND
SPEEDS ARE IN MILES-PER-HOUR.




USA.gov is the U.S. government's official web portal to all federal, state and local government web resources and services.